AirNav   Duncan Aviation - Near you to keep you flying
 
 655 users online  

WN09 Bucky's Airpark
Plainfield, Wisconsin, USA

GOING TO PLAINFIELD?


FAA INFORMATION EFFECTIVE 01 DECEMBER 2022

Location

FAA Identifier: WN09
Lat/Long: 44-09-52.0000N 089-30-29.0000W
44-09.866667N 089-30.483333W
44.1644444,-89.5080556
(estimated)
Elevation: 1145 ft. / 349 m (estimated)
From city: 3 miles S of PLAINFIELD, WI
Time zone: UTC -6 (UTC -5 during Daylight Saving Time)
Zip code: 54966

Airport Operations

Airport use: Private use. Permission required prior to landing
Activation date: 12/2003
Control tower: no
ARTCC: CHICAGO CENTER
FSS: GREEN BAY FLIGHT SERVICE STATION
Attendance: UNATNDD
Wind indicator: yes
Segmented circle: no

Airport Communications

WX AWOS-3PT at Y50 (11 nm SE): 119.475 (920-787-0515)
WX ASOS at ISW (18 nm NW): 126.575 (715-421-2120)

Nearby radio navigation aids

VOR radial/distance  VOR name  Freq  Var
DLLr014/38.4DELLS VORTAC117.0003E

Airport Services

Runway Information

Runway 18/36

Dimensions: 1650 x 90 ft. / 503 x 27 m
Surface: turf
RUNWAY 18  RUNWAY 36
Traffic pattern: leftleft
Obstructions: none40 ft. pline, marked, 216 ft. from runway

Airport Ownership and Management from official FAA records

Ownership: Privately-owned
Owner: TOM BUCHBERGER
N5160 5TH DRIVE
PLAINFIELD, WI 54966
Phone 715-335-8210
Manager: TOM BUCHBERGER
N 5160 5TH DRIVE
PLAINFIELD, WI 54966
Phone 715-335-8210

Airport Operational Statistics

Aircraft based on the field: 2
Single engine airplanes: 2
    

Additional Remarks

RY 18 IS FOR ARR USE ONLY AND 36 IS FOR DEP ONLY.
FOR CD CTC CHICAGO ARTCC AT 630-906-8921.

Instrument Procedures

There are no published instrument procedures at WN09.

Some nearby airports with instrument procedures:

Y50 - Wautoma Municipal Airport (11 nm SE)
63C - Adams County Airport-Legion Field (17 nm SW)
KISW - Alexander Field South Wood County Airport (18 nm NW)
KSTE - Stevens Point Municipal Airport (23 nm N)
KPCZ - Waupaca Municipal Airport (23 nm NE)
 
Loc | Ops | Rwys | IFR | FBO | Links
Com | Nav | Svcs | Stats | Notes
Area around WN09 (Bucky's Airpark)
 
Road maps at: MapQuest Bing Google
 
Aerial photo
No photo
 
Sectional chart

 
Airport distance calculator
Flying to Bucky's Airpark? Find the distance to fly.

From to WN09

Sunrise and sunset
Times for 06-Dec-2022
 Local
(UTC-6)
 Zulu
(UTC)
Morning civil twilight06:4712:47
Sunrise07:2013:20
Sunset16:1922:19
Evening civil twilight16:5122:51

Current date and time
Zulu (UTC)  06-Dec-2022 06:52:51
Local (UTC-6)  06-Dec-2022 00:52:51
 
METAR
KY50 
11nm SE 
060556Z AUTO 00000KT 10SM BKN075 OVC095 M01/M06 A2998 RMK AO2 SLP161 T10111056 10006 21017 400391044 53009 FZRANO $
KISW 
19nm NW 
060554Z AUTO 34005KT 10SM OVC100 M03/M08 A2999 RMK AO2 SLP170 T10281078 10000 21028 400171056 53012
KSTE 
22nm N 
060635Z AUTO 00000KT 10SM CLR M02/M09 A3000 RMK AO2 T10211090
TAF
KVOK 
36nm SW 
051700Z 0517/0623 VRB06KT 9999 BKN100 QNH2979INS BECMG 0523/0524 VRB06KT 9999 BKN030 520309 QNH2990INS BECMG 0614/0615 VRB06KT 9999 SCT030 BKN100 QNH3002INS BECMG 0618/0619 VRB06KT 9999 BKN025 QNH3000INS TX04/0520Z TNM01/0614Z LAST NO AMDS AFT 0522 NEXT 0609
KCWA 
37nm N 
060520Z 0606/0706 33005KT P6SM SCT030 OVC060 TEMPO 0606/0607 BKN030 FM060800 01004KT P6SM BKN100 FM061700 12007G15KT P6SM BKN045 FM062100 15006KT P6SM BKN025 FM070400 VRB03KT P6SM SCT035
KATW 
43nm E 
060520Z 0606/0706 35007KT P6SM SCT040 OVC070 FM061000 03006KT P6SM BKN100 FM061500 07005KT P6SM OVC030 FM061700 09004KT P6SM OVC022 FM062300 VRB03KT P6SM BKN022
NOTAMs
Click for the latest NOTAMs
NOTAMs are issued by the DoD/FAA and will open in a separate window not controlled by AirNav.

 

 
 

Would you like to see your business listed on this page?

 If your business provides an interesting product or service to pilots, flight crews, aircraft, or users of the Bucky's Airpark, you should consider listing it here.  To start the listing process, click on the button below
 
Add a business
 

Other Pages about Bucky's Airpark

Update a link
 
Copyright © AirNav, LLC. All rights reserved. Privacy Policy  Contact